Weather History for Baker, MT

Change the Weather History Date:

Sunday, November 25, 2012

  Actual Average Record
Temperature  
Mean Temperature 24 °F -  
Max Temperature 32 °F 39 °F 51 °F (1998)
Min Temperature 15 °F 12 °F 10 °F (2006)
Degree Days  
Heating Degree Days 42    
Moisture  
Dew Point 19 °F    
Average Humidity 83    
Maximum Humidity 93    
Minimum Humidity 74    
Precipitation  
Precipitation 0.00 in - - ()
Sea Level Pressure  
Sea Level Pressure 30.11 in    
Wind  
Wind Speed 5 mph (NNW)    
Max Wind Speed 16 mph    
Max Gust Speed 23 mph    
Visibility 9 miles    
Events Fog    
Averages and records for this station are not official NWS values.
T = Trace of Precipitation, MM = Missing Value Source: NWS Daily Summary

Daily Weather History Graph

Daily Weather History Graph

Search for Another Location

Airport:

Trip Planner

Search our weather history database for the weather conditions in past years. The results will help you decide how hot, cold, wet, or windy it might be!

Date:

Astronomy

Nov. 25, 2012 Rise Set
Actual Time 7:12 AM MST 4:15 PM MST
Civil Twilight 6:39 AM MST 4:48 PM MST
Nautical Twilight 6:01 AM MST 5:26 PM MST
Astronomical Twilight 5:25 AM MST 6:02 PM MST
Moon 2:39 PM MST (11/25) 4:22 AM MST (11/25)
Length of Visible Light 10h 09m
Length of Day
9h 02m
Waxing Gibbous, 93% of the Moon is Illuminated
Nov 25
Waxing Gibbous
Nov 28
Full
Dec 6
Last Quarter
Dec 13
New
Dec 19
First Quarter

Hourly Weather History & Observations

Time (MST) Temp. Windchill Dew Point Humidity Pressure Visibility Wind Dir Wind Speed Gust Speed Precip Events Conditions
12:51 AM 28.0 °F 20.8 °F 24.1 °F 85% 30.06 in 10.0 mi WNW 6.9 mph - N/A   Overcast
2:51 AM 26.1 °F 20.5 °F 23.0 °F 88% 30.05 in 10.0 mi WNW 4.6 mph - N/A   Mostly Cloudy
3:02 AM 26.6 °F 21.2 °F 21.2 °F 80% 29.98 in 10.0 mi WNW 4.6 mph - N/A   Scattered Clouds
3:51 AM 25.0 °F - 21.9 °F 88% 30.05 in 10.0 mi Calm Calm - N/A   Clear
5:51 AM 21.9 °F 15.7 °F 18.0 °F 85% 30.07 in 10.0 mi NW 4.6 mph - N/A   Clear
6:51 AM 21.0 °F - 18.0 °F 88% 30.08 in 10.0 mi Calm Calm - N/A   Partly Cloudy
7:31 AM 19.4 °F - 15.8 °F 86% 29.99 in 10.0 mi Calm Calm - N/A   Mostly Cloudy
7:40 AM 21.2 °F - 17.6 °F 86% 30.00 in 4.0 mi Calm Calm - N/A   Overcast
7:51 AM 19.9 °F 14.9 °F 16.0 °F 85% 30.10 in 10.0 mi WNW 3.5 mph - N/A   Overcast
8:18 AM 21.2 °F - 17.6 °F 86% 30.00 in 1.5 mi Calm Calm - N/A   Overcast
8:25 AM 21.2 °F - 17.6 °F 86% 30.00 in 0.5 mi Calm Calm - N/A Fog Light Freezing Fog
8:51 AM 23.0 °F - 19.9 °F 88% 30.10 in 0.2 mi Calm Calm - N/A Fog Light Freezing Fog
9:51 AM 27.0 °F 19.5 °F 23.0 °F 85% 30.11 in 1.8 mi West 6.9 mph - N/A   Overcast
9:55 AM 26.6 °F 18.2 °F 24.8 °F 93% 30.02 in 3.0 mi West 8.1 mph - N/A   Overcast
10:21 AM 28.4 °F 23.3 °F 26.6 °F 93% 30.02 in 10.0 mi Variable 4.6 mph - N/A   Mostly Cloudy
10:30 AM 28.4 °F 23.3 °F 24.8 °F 86% 30.01 in 10.0 mi WNW 4.6 mph - N/A   Scattered Clouds
10:51 AM 28.9 °F 23.9 °F 25.0 °F 85% 30.10 in 10.0 mi NW 4.6 mph - N/A   Clear
11:51 AM 32.0 °F 25.6 °F 25.0 °F 75% 30.08 in 10.0 mi NNW 6.9 mph - N/A   Scattered Clouds
12:51 PM 30.9 °F 22.2 °F 24.1 °F 76% 30.09 in 10.0 mi NW 10.4 mph - N/A   Partly Cloudy
1:31 PM 30.2 °F 20.8 °F 23.0 °F 75% 30.01 in 10.0 mi North 11.5 mph - N/A   Mostly Cloudy
1:51 PM 28.0 °F 18.1 °F 21.9 °F 78% 30.12 in 10.0 mi North 11.5 mph 23.0 mph N/A   Overcast
1:56 PM 28.4 °F 17.0 °F 21.2 °F 74% 30.02 in 10.0 mi North 15.0 mph 21.9 mph N/A   Overcast
2:38 PM 26.6 °F 14.3 °F 19.4 °F 74% 30.04 in 10.0 mi North 16.1 mph 23.0 mph N/A   Overcast
2:51 PM 26.1 °F 16.8 °F 19.9 °F 78% 30.15 in 10.0 mi North 9.2 mph 21.9 mph N/A   Overcast
3:04 PM 24.8 °F 15.3 °F 19.4 °F 80% 30.06 in 10.0 mi NNW 9.2 mph - N/A   Overcast
3:51 PM 25.0 °F 15.5 °F 18.0 °F 75% 30.17 in 10.0 mi NNW 9.2 mph - N/A   Overcast
4:51 PM 23.0 °F 13.1 °F 17.1 °F 78% 30.21 in 10.0 mi NNW 9.2 mph - N/A   Overcast
4:56 PM 23.0 °F 12.4 °F 17.6 °F 80% 30.10 in 10.0 mi North 10.4 mph - N/A   Overcast
5:51 PM 19.9 °F 9.3 °F 15.1 °F 81% 30.25 in 10.0 mi NNE 9.2 mph - N/A   Overcast
7:51 PM 18.0 °F 9.8 °F 12.0 °F 78% 30.31 in 10.0 mi NNE 5.8 mph - N/A   Overcast
8:51 PM 17.1 °F 10.0 °F 12.0 °F 81% 30.32 in 10.0 mi North 4.6 mph - N/A   Overcast
9:51 PM 16.0 °F 8.8 °F 10.9 °F 81% 30.34 in 10.0 mi NNE 4.6 mph - N/A   Overcast
10:51 PM 15.1 °F 7.7 °F 10.9 °F 84% 30.35 in 10.0 mi WNW 4.6 mph - N/A   Overcast
11:51 PM 15.1 °F 5.2 °F 10.9 °F 84% 30.35 in 10.0 mi West 6.9 mph - N/A   Overcast